East Milton, MA

11:31 PM EDT on May 20, 2018 (GMT -0400)
East Milton

Weather History for KMQE - November, 2012

Change the Weather History Date:

Sunday, November 4, 2012

  Actual Average (KOWD) Record (KOWD)
Temperature  
Mean Temperature 44 °F -  
Max Temperature 53 °F 52 °F 70 °F (2005)
Min Temperature 35 °F 32 °F 19 °F (2006)
Degree Days  
Heating Degree Days 22    
Moisture  
Dew Point 30 °F    
Average Humidity 67    
Maximum Humidity 82    
Minimum Humidity 49    
Precipitation  
Precipitation 0.00 in - - ()
Sea Level Pressure  
Sea Level Pressure 29.89 in    
Wind  
Wind Speed 12 mph (NW)    
Max Wind Speed 16 mph    
Max Gust Speed 24 mph    
Averages and records for this station are not official NWS values.
T = Trace of Precipitation, MM = Missing Value Source: NWS Daily Summary

Daily Weather History Graph

Daily Weather History Graph

Search for Another Location

Airport or City:

Astronomy

Nov. 04, 2012 Rise Set
Actual Time 6:21 AM EST 4:33 PM EST
Civil Twilight 5:52 AM EST 5:03 PM EST
Nautical Twilight 5:19 AM EST 5:36 PM EST
Astronomical Twilight 4:46 AM EST 6:09 PM EST
Moon 9:07 PM EST (11/4) 11:04 AM EST (11/4)
Length of Visible Light 11h 10m
Length of Day
10h 12m
Waning Gibbous, 72% of the Moon is Illuminated
Nov 4
Waning Gibbous
Nov 6
Last Quarter
Nov 13
New
Nov 20
First Quarter
Nov 28
Full

Hourly Weather History & Observations

Time (EST) Temp. Windchill Dew Point Humidity Pressure Visibility Wind Dir Wind Speed Gust Speed Precip Events Conditions
12:54 AM 37.9 °F 30.0 °F 28.0 °F 68% 29.81 in - WNW 12.7 mph - N/A   Unknown
1:54 AM 37.9 °F 30.0 °F 28.9 °F 70% 29.81 in - WNW 12.7 mph 18.4 mph N/A   Unknown
1:54 AM 37.9 °F 30.0 °F 28.9 °F 70% 29.82 in - WNW 12.7 mph 19.6 mph N/A   Unknown
2:54 AM 36.0 °F 27.5 °F 28.9 °F 76% 29.82 in - WNW 12.7 mph - N/A   Unknown
3:54 AM 36.0 °F 27.5 °F 28.9 °F 76% 29.83 in - WNW 12.7 mph - N/A   Unknown
4:54 AM 35.1 °F 26.4 °F 28.9 °F 78% 29.85 in - WNW 12.7 mph - N/A   Unknown
5:54 AM 35.1 °F 26.9 °F 28.9 °F 78% 29.85 in - NW 11.5 mph - N/A   Unknown
6:54 AM 35.1 °F 26.9 °F 30.0 °F 82% 29.88 in - WNW 11.5 mph - N/A   Unknown
7:54 AM 39.0 °F 32.8 °F 30.9 °F 73% 29.90 in - WNW 9.2 mph - N/A   Unknown
8:54 AM 43.0 °F 35.7 °F 32.0 °F 65% 29.90 in - NW 15.0 mph 24.2 mph N/A   Unknown
9:54 AM 46.0 °F 39.9 °F 33.1 °F 61% 29.90 in - NW 13.8 mph 20.7 mph N/A   Unknown
10:54 AM 48.0 °F - 33.1 °F 56% 29.89 in - NW 12.7 mph 19.6 mph N/A   Unknown
11:54 AM 51.1 °F - 33.1 °F 50% 29.88 in - NW 9.2 mph - N/A   Unknown
12:54 PM 51.1 °F - 33.1 °F 50% 29.87 in - WNW 12.7 mph 19.6 mph N/A   Unknown
1:54 PM 52.0 °F - 33.1 °F 49% 29.87 in - NW 12.7 mph 19.6 mph N/A   Unknown
2:54 PM 48.9 °F - 33.1 °F 54% 29.88 in - NW 16.1 mph 21.9 mph N/A   Unknown
3:54 PM 46.0 °F 40.2 °F 30.9 °F 56% 29.90 in - NW 12.7 mph 19.6 mph N/A   Unknown
4:54 PM 43.0 °F 36.0 °F 30.9 °F 62% 29.91 in - NNW 13.8 mph 19.6 mph N/A   Unknown
5:54 PM 41.0 °F 34.3 °F 30.0 °F 65% 29.93 in - NW 11.5 mph 20.7 mph N/A   Unknown
6:54 PM 39.0 °F 33.4 °F 28.9 °F 67% 29.94 in - NW 8.1 mph - N/A   Unknown
7:54 PM 37.0 °F 29.3 °F 30.0 °F 76% 29.95 in - NW 11.5 mph - N/A   Unknown
8:54 PM 37.0 °F 31.0 °F 28.9 °F 73% 29.95 in - NNW 8.1 mph - N/A   Unknown
9:54 PM 37.0 °F 31.0 °F 28.9 °F 73% 29.95 in - North 8.1 mph - N/A   Unknown
10:54 PM 36.0 °F 28.0 °F 27.0 °F 70% 29.95 in - North 11.5 mph - N/A   Unknown